Regional Weather Roundup
Issued by NWS

Home | Current Version | Previous Version | Graphics & Text | Print | Product List | Glossary On
Versions: 1 2 3 4 5 6 7 8 9 10 11 12 13 14 15 16 17 18 19 20 21 22 23 24 25 26 27 28 29 30 31 32 33 34 35 36 37 38 39 40 41 42 43 44 45 46 47 48 49 50
000
ASUS43 KBIS 050501
RWRND

NORTH DAKOTA REGIONAL WEATHER ROUNDUP
NATIONAL WEATHER SERVICE BISMARCK ND
1200 AM CDT TUE MAY 05 2015

NOTE: "FAIR" INDICATES FEW OR NO CLOUDS BELOW 12,000 FEET WITH NO
SIGNIFICANT WEATHER AND/OR OBSTRUCTIONS TO VISIBILITY.


NDZ001>003-009>011-017-050600-
NORTHWEST NORTH DAKOTA

CITY           SKY/WX    TMP DP  RH WIND       PRES   REMARKS
WILLISTON      CLEAR     55  38  52 SE10      30.03F
MINOT          CLOUDY    59  29  31 S9        30.08F
MINOT AFB      CLOUDY    56  32  39 S10       30.07F
$$

NDZ018>021-031>035-040>046-050600-
SOUTHWEST NORTH DAKOTA

CITY           SKY/WX    TMP DP  RH WIND       PRES   REMARKS
BISMARCK       MOCLDY    49  33  54 SE5       30.12F
DICKINSON      CLEAR     44  31  60 SE12      30.06F
GARRISON         N/A     50  33  52 SE6       30.10S
HETTINGER ARPT PTCLDY    48  28  46 SE9       30.09F
$$

NDZ004>008-012>016-024-026-027-054-050600-
NORTHEAST NORTH DAKOTA

CITY           SKY/WX    TMP DP  RH WIND       PRES   REMARKS
GRAND FORKS    CLEAR     50  27  40 SE7       30.16S
GRND FRKS AFB  CLEAR     44  27  51 S7        30.16S
DEVILS LAKE    CLEAR     52  34  50 SE7       30.15S
$$

NDZ022-023-025-028>030-036>039-047>053-050600-
SOUTHEAST NORTH DAKOTA

CITY           SKY/WX    TMP DP  RH WIND       PRES   REMARKS
FARGO          CLEAR     47  26  44 SE6       30.18S
JAMESTOWN      CLEAR     50  26  39 SE8       30.16S
$$




USA.gov is the U.S. government's official web portal to all federal, state and local government web resources and services.